Location: Columbia
(38.9520°N, 92.3340°W)
Time: 00:51:48
(UTC-06:00)

Cosmos 1633 - Visible Passes

Search period start: 28 February 2015 00:00
Search period end: 10 March 2015 01:00
Orbit: 489 x 508 km, 82.5° (Epoch: 26 February)

Date Brightness Start Highest point End Pass type
(mag) Time Alt. Az. Time Alt. Az. Time Alt. Az.
28 Feb 4.6 05:48:34 10° NNE 05:51:59 33° ENE 05:55:24 10° SE visible
28 Feb 4.3 19:34:10 10° SW 19:37:39 35° WNW 19:41:09 10° N visible
01 Mar 5.3 05:28:33 10° NNE 05:31:34 23° ENE 05:34:39 10° SE visible
01 Mar 3.5 19:13:36 10° SSW 19:17:16 52° W 19:20:59 10° N visible
02 Mar 5.8 05:08:42 10° NNE 05:11:07 17° ENE 05:13:39 10° ESE visible
02 Mar 2.8 18:53:09 10° S 18:56:55 78° W 19:00:43 10° N visible
03 Mar 6.1 04:49:15 10° NE 04:50:38 12° ENE 04:52:11 10° E visible
03 Mar 2.6 18:32:50 10° S 18:36:34 71° E 18:40:22 10° NNE visible
04 Mar 2.7 06:02:16 10° NNW 06:05:58 57° W 06:09:36 10° S visible
04 Mar 6.4 19:51:25 10° WNW 19:52:00 10° WNW 19:52:21 10° WNW visible
05 Mar 2.6 05:41:51 10° N 05:45:37 87° W 05:49:20 10° S visible
05 Mar 6.0 19:29:14 10° WSW 19:31:27 14° WNW 19:33:32 10° NW visible
06 Mar 3.1 05:21:30 10° N 05:25:13 62° E 05:28:54 10° SSE visible
06 Mar 5.6 19:08:03 10° SW 19:10:56 20° WNW 19:13:46 10° NNW visible
07 Mar 4.0 05:01:14 10° N 05:04:48 41° E 05:08:21 10° SSE visible
07 Mar 5.1 18:47:08 10° SW 18:50:27 28° WNW 18:53:44 10° NNW visible
08 Mar 4.7 05:41:04 10° NNE 05:44:20 28° ENE 05:47:37 10° SE visible
09 Mar 5.3 05:21:01 10° NNE 05:23:50 20° ENE 05:26:41 10° SE visible
09 Mar 3.8 06:56:14 10° NW 06:59:09 21° W 07:01:57 10° SW visible
